Weather History for Glasgow, KY

Change the Weather History Date:

Sunday, November 3, 2013

  Actual Average Record
Temperature  
Mean Temperature 43 °F -  
Max Temperature 55 °F 62 °F 79 °F (1956)
Min Temperature 31 °F 42 °F 18 °F (1954)
Degree Days  
Heating Degree Days 22    
Moisture  
Dew Point 35 °F    
Average Humidity 77    
Maximum Humidity 100    
Minimum Humidity 44    
Precipitation  
Precipitation 0.00 in - - ()
Sea Level Pressure  
Sea Level Pressure 30.26 in    
Wind  
Wind Speed 2 mph (ENE)    
Max Wind Speed 8 mph    
Max Gust Speed -    
Visibility 7 miles    
Events Fog    
Averages and records for this station are not official NWS values.
T = Trace of Precipitation, MM = Missing Value Source: NWS Daily Summary

Daily Weather History Graph

Daily Weather History Graph

Search for Another Location

Airport:

Trip Planner

Search our weather history database for the weather conditions in past years. The results will help you decide how hot, cold, wet, or windy it might be!

Date:

Astronomy

Nov. 03, 2013 Rise Set
Actual Time 6:10 AM CST 4:43 PM CST
Civil Twilight 5:43 AM CST 5:11 PM CST
Nautical Twilight 5:12 AM CST 5:41 PM CST
Astronomical Twilight 4:42 AM CST 6:12 PM CST
Moon 6:13 AM CST (11/3) 4:59 PM CST (11/3)
Length of Visible Light 11h 27m
Length of Day
10h 33m
New Moon, 0% of the Moon is Illuminated
Nov 3
New Moon
Nov 9
First Quarter
Nov 17
Full
Nov 25
Last Quarter
Dec 2
New

Hourly Weather History & Observations

Time (CST) Temp. Windchill Dew Point Humidity Pressure Visibility Wind Dir Wind Speed Gust Speed Precip Events Conditions
12:15 AM 41.0 °F 39.0 °F 37.0 °F 86% 30.16 in 10.0 mi NW 3.5 mph - N/A   Clear
12:35 AM 41.2 °F - 37.0 °F 85% 30.17 in 10.0 mi Calm Calm - N/A   Clear
12:55 AM 39.7 °F - 37.2 °F 91% 30.17 in 10.0 mi Calm Calm - N/A   Clear
1:15 AM 37.4 °F - 37.4 °F 100% 30.17 in 7.0 mi Calm Calm - N/A   Clear
1:35 AM 37.4 °F - 37.4 °F 100% 30.17 in 5.0 mi Calm Calm - N/A   Clear
1:55 AM 37.9 °F - 37.9 °F 100% 30.17 in 5.0 mi Calm Calm - N/A   Clear
1:15 AM 36.5 °F - 36.5 °F 100% 30.17 in 4.0 mi Calm Calm - N/A   Clear
1:35 AM 35.8 °F - 35.8 °F 100% 30.18 in 2.5 mi Calm Calm - N/A   Clear
1:55 AM 35.1 °F - 35.1 °F 100% 30.18 in 3.0 mi Calm Calm - N/A   Clear
2:15 AM 35.2 °F - 35.2 °F 100% 30.18 in 1.8 mi Calm Calm - N/A   Mist
2:35 AM 34.9 °F - 34.9 °F 100% 30.19 in 1.2 mi Calm Calm - N/A   Mist
2:55 AM 34.3 °F - 34.3 °F 100% 30.20 in 1.2 mi Calm Calm - N/A   Mist
3:15 AM 32.7 °F - 32.7 °F 100% 30.20 in 2.5 mi Calm Calm - N/A   Clear
3:35 AM 32.7 °F - 32.7 °F 100% 30.21 in 2.5 mi Calm Calm - N/A   Clear
3:55 AM 32.7 °F - 32.7 °F 100% 30.21 in 1.2 mi Calm Calm - N/A   Mist
4:15 AM 32.7 °F - 32.7 °F 100% 30.22 in 1.5 mi Calm Calm - N/A   Scattered Clouds
4:35 AM 32.2 °F - 32.2 °F 100% 30.23 in 0.5 mi Calm Calm - N/A Fog Fog
4:55 AM 32.0 °F - 32.0 °F 100% 30.23 in 0.8 mi Calm Calm - N/A   Overcast
5:15 AM 32.0 °F - 32.0 °F 100% 30.23 in 1.2 mi Calm Calm - N/A   Mostly Cloudy
5:35 AM 31.5 °F - 31.5 °F 100% 30.24 in 1.8 mi Calm Calm - N/A   Scattered Clouds
5:55 AM 31.6 °F - 31.6 °F 100% 30.26 in 1.5 mi Calm Calm - N/A   Mostly Cloudy
6:15 AM 31.5 °F - 31.5 °F 100% 30.26 in 0.5 mi Calm Calm - N/A Fog Fog
6:35 AM 31.6 °F - 31.6 °F 100% 30.27 in 0.8 mi Calm Calm - N/A   Mostly Cloudy
6:55 AM 32.5 °F - 32.5 °F 100% 30.28 in 2.0 mi Calm Calm - N/A   Clear
7:15 AM 33.6 °F - 33.6 °F 100% 30.29 in 2.5 mi Calm Calm - N/A   Clear
7:35 AM 36.1 °F - 36.1 °F 100% 30.29 in 4.0 mi Calm Calm - N/A   Clear
7:55 AM 39.6 °F - 39.6 °F 100% 30.30 in 5.0 mi Calm Calm - N/A   Clear
8:15 AM 42.6 °F 40.9 °F 40.1 °F 91% 30.31 in 10.0 mi NE 3.5 mph - N/A   Clear
8:35 AM 45.0 °F 42.6 °F 38.8 °F 79% 30.32 in 10.0 mi ENE 4.6 mph - N/A   Clear
8:55 AM 46.4 °F 44.3 °F 38.8 °F 75% 30.32 in 10.0 mi NE 4.6 mph - N/A   Clear
9:15 AM 47.5 °F - 39.4 °F 73% 30.32 in 10.0 mi ENE 3.5 mph - N/A   Clear
9:35 AM 48.4 °F - 39.2 °F 71% 30.33 in 10.0 mi ENE 4.6 mph - N/A   Clear
9:55 AM 49.6 °F - 39.0 °F 67% 30.33 in 10.0 mi ENE 3.5 mph - N/A   Clear
10:15 AM 50.0 °F - 39.0 °F 66% 30.33 in 10.0 mi East 5.8 mph - N/A   Scattered Clouds
10:35 AM 51.1 °F - 38.5 °F 62% 30.34 in 10.0 mi SE 4.6 mph - N/A   Scattered Clouds
10:55 AM 51.1 °F - 37.4 °F 60% 30.33 in 10.0 mi Calm Calm - N/A   Clear
11:15 AM 51.6 °F - 37.4 °F 58% 30.32 in 10.0 mi ENE 4.6 mph - N/A   Scattered Clouds
11:35 AM 54.3 °F - 37.9 °F 54% 30.32 in 10.0 mi Calm Calm - N/A   Mostly Cloudy
11:55 AM 54.7 °F - 37.4 °F 52% 30.30 in 5.0 mi North 5.8 mph - N/A   Haze
12:15 PM 54.1 °F - 36.9 °F 52% 30.29 in 10.0 mi East 4.6 mph - N/A   Mostly Cloudy
12:35 PM 54.9 °F - 36.1 °F 49% 30.27 in 10.0 mi North 4.6 mph - N/A   Mostly Cloudy
12:55 PM 54.3 °F - 35.6 °F 49% 30.27 in 10.0 mi East 4.6 mph - N/A   Scattered Clouds
1:15 PM 54.3 °F - 35.4 °F 49% 30.27 in 10.0 mi East 4.6 mph - N/A   Scattered Clouds
1:35 PM 55.0 °F - 35.2 °F 47% 30.26 in 10.0 mi Calm Calm - N/A   Scattered Clouds
1:55 PM 55.8 °F - 35.4 °F 46% 30.26 in 10.0 mi ENE 5.8 mph - N/A   Scattered Clouds
2:15 PM 55.9 °F - 34.3 °F 44% 30.27 in 10.0 mi East 5.8 mph - N/A   Clear
2:35 PM 55.2 °F - 34.5 °F 46% 30.27 in 10.0 mi Calm Calm - N/A   Clear
2:55 PM 55.9 °F - 34.5 °F 45% 30.26 in 10.0 mi ENE 3.5 mph - N/A   Scattered Clouds
3:15 PM 55.8 °F - 34.0 °F 44% 30.26 in 10.0 mi East 3.5 mph - N/A   Clear
3:35 PM 55.4 °F - 34.3 °F 45% 30.26 in 10.0 mi East 8.1 mph - N/A   Clear
3:55 PM 54.7 °F - 35.2 °F 48% 30.26 in 10.0 mi ENE 3.5 mph - N/A   Clear
4:15 PM 53.8 °F - 35.2 °F 50% 30.26 in 10.0 mi Calm Calm - N/A   Clear
4:35 PM 52.5 °F - 34.5 °F 50% 30.26 in 10.0 mi Calm Calm - N/A   Clear
4:55 PM 50.9 °F - 34.7 °F 54% 30.26 in 10.0 mi Calm Calm - N/A   Clear
5:15 PM 47.8 °F - 35.2 °F 62% 30.25 in 10.0 mi Calm Calm - N/A   Clear
5:35 PM 47.1 °F - 35.2 °F 63% 30.25 in 10.0 mi ENE 3.5 mph - N/A   Clear
5:55 PM 46.2 °F 45.0 °F 35.1 °F 65% 30.25 in 10.0 mi East 3.5 mph - N/A   Clear
6:15 PM 45.5 °F 43.2 °F 35.6 °F 68% 30.25 in 4.0 mi East 4.6 mph - N/A   Haze
6:35 PM 45.7 °F 43.4 °F 35.6 °F 68% 30.26 in 10.0 mi East 4.6 mph - N/A   Clear
6:55 PM 45.9 °F 44.6 °F 35.6 °F 67% 30.26 in 10.0 mi ENE 3.5 mph - N/A   Clear
7:15 PM 45.1 °F - 35.6 °F 69% 30.27 in 10.0 mi Calm Calm - N/A   Clear
7:35 PM 43.5 °F - 35.2 °F 73% 30.29 in 10.0 mi Calm Calm - N/A   Clear
7:55 PM 41.2 °F - 34.9 °F 78% 30.29 in 10.0 mi Calm Calm - N/A   Clear
8:15 PM 40.5 °F 37.3 °F 35.4 °F 82% 30.28 in 10.0 mi ENE 4.6 mph - N/A   Clear
8:35 PM 40.6 °F 37.5 °F 35.6 °F 82% 30.29 in 10.0 mi ENE 4.6 mph - N/A   Clear
8:55 PM 41.2 °F 38.2 °F 35.6 °F 81% 30.29 in 10.0 mi East 4.6 mph - N/A   Clear
9:15 PM 41.2 °F 38.2 °F 35.4 °F 80% 30.29 in 10.0 mi East 4.6 mph - N/A   Clear
9:35 PM 41.0 °F 39.0 °F 35.2 °F 80% 30.29 in 10.0 mi East 3.5 mph - N/A   Clear
9:55 PM 40.8 °F 38.8 °F 35.2 °F 80% 30.29 in 10.0 mi ENE 3.5 mph - N/A   Clear
10:15 PM 39.7 °F - 34.9 °F 83% 30.29 in 10.0 mi Calm Calm - N/A   Clear
10:35 PM 38.3 °F - 34.9 °F 87% 30.30 in 10.0 mi Calm Calm - N/A   Clear
10:55 PM 38.5 °F - 35.1 °F 87% 30.30 in 10.0 mi Calm Calm - N/A   Clear